Powrót do katalogu

CZ-6A DEB

AktywnyPO
NORAD 60979·DEBRIS·🇨🇳 China

Wystrzelony Aug 6, 2024 z Taiyuan Satellite Launch Center

Loading…

Następne Przeloty (najbliższe 24 godziny)

TLE

ŚwieżeSource: Space-Track

Epoka: Sep 14, 2026, 22:52 UTC

1 60979U 24140ME  26257.95332338  .00023138  00000-0  23721-2 0  9994
2 60979  89.0180 259.4960 0047474 240.6840 118.9642 14.89506877111328

Śledź CZ-6A DEB w czasie rzeczywistym z AllMySat

Download on the App Store